[[{"header":{"parameterUnit":"m.s-1","parameterCategory":1,"la1":30.2991,"la2":30.254,"lo1":-89.0895,"lo2":-89.0444,"dy":0.0017,"dx":0.0017,"nx":28,"ny":28,"refTime":"2023-08-26T03:00:00:Z","depth":0,"parameterNumber":2,"parameterNumberName":"U-component_of_WINDS"},"data":[0,0,0,0,0,0,0,0,0,0,0,0,0,0,0,0,0,0,0,0,0,0,0,0,0,0,0,0,0,0,0,0,0,0,0,0,0,0,0,0,0,0,0,0,0,0,0,0,0,0,0,0,0,0,0,0,0,0,1.4187,1.4188,0,1.4326,1.4328,1.4329,1.4393,1.4393,1.4393,1.4393,1.4533,1.4536,1.454,0,0,0,0,0,0,0,0,0,0,0,0,0,1.3972,1.3976,1.4187,1.4189,1.419,1.4326,1.4328,1.433,1.4393,1.4393,1.4393,1.4393,1.4531,1.4536,1.4541,0,0,0,0,0,0,0,0,0,0,0,0,0,1.4084,1.3977,1.4187,1.4238,1.4244,1.4326,1.4328,1.433,1.4393,1.4393,1.4393,1.4393,1.453,1.4536,1.4541,1.4581,0,0,1.4559,1.4561,0,0,0,0,0,0,0,0,1.4077,1.4091,1.4229,1.4235,1.4242,1.4342,1.4304,1.4414,1.4393,1.4337,1.4393,1.4392,1.4469,1.448,1.4507,1.4587,1.4593,1.4559,1.4563,1.4565,1.4567,0,0,0,0,0,0,0,1.4069,1.4086,1.4242,1.4231,1.4239,1.4253,1.4269,1.4325,1.4402,1.4341,1.4346,1.4362,1.4473,1.4501,1.451,1.4595,1.4559,1.4564,1.4568,1.457,1.4715,1.4715,0,0,0,0,0,0,1.4054,1.4079,1.4238,1.4246,1.4157,1.4257,1.4275,1.431,1.4402,1.4416,1.4362,1.4365,1.4491,1.4503,1.4515,1.4568,1.4565,1.4571,1.4574,1.4715,1.4715,1.4715,0,0,0,0,0,0,1.4049,1.4067,1.4232,1.4164,1.4186,1.4261,1.43,1.4313,1.4341,1.4418,1.4431,1.4377,1.4491,1.4507,1.4564,1.4574,1.4573,1.4579,1.4714,1.4715,1.4715,1.4673,0,0,0,0,0,0,1.4042,1.4065,1.4082,1.4164,1.4189,1.4279,1.4301,1.4316,1.4351,1.4356,1.4435,1.4448,1.4492,1.4555,1.457,1.4582,1.4583,1.4714,1.4714,1.4715,1.4673,1.4672,1.467,0,0,0,0,0,1.4035,1.4064,1.4082,1.4101,1.4212,1.428,1.4294,1.4346,1.4352,1.4369,1.4417,1.4445,1.457,1.456,1.4578,1.4591,1.4713,1.4714,1.4715,1.4674,1.4672,1.467,0,0,0,0,0,0,1.398,1.4075,1.4097,1.4154,1.4208,1.429,1.4313,1.4341,1.4394,1.4396,1.4457,1.4474,1.4526,1.4564,1.4552,1.4634,1.4644,1.4648,1.4607,1.4606,1.4604,1.4594,1.4588,0,0,0,0,0,1.3974,1.4022,1.4103,1.4145,1.4171,1.4237,1.4268,1.4303,1.4362,1.4385,1.4438,1.4493,1.4544,1.4577,1.4629,1.4679,1.4697,1.4696,1.4695,1.4693,1.4696,1.4725,1.4726,1.4718,1.4718,1.4718,0,0,1.3963,1.4022,1.4048,1.4135,1.4182,1.4229,1.4256,1.4305,1.4341,1.4392,1.4449,1.449,1.4555,1.4609,1.4635,1.4642,1.4702,1.4694,1.4692,1.4696,1.4726,1.4727,1.4728,1.4719,1.4719,1.4719,0,0,1.3968,1.4017,1.4058,1.4104,1.4174,1.4217,1.4227,1.4304,1.4334,1.4392,1.4432,1.4474,1.4561,1.4606,1.464,1.4661,1.4688,1.4676,1.4667,1.4695,1.4695,1.4696,1.4704,1.4706,1.4678,1.4678,1.4678,0,1.3946,1.402,1.4075,1.4122,1.4159,1.4208,1.4249,1.4291,1.4373,1.4397,1.4404,1.4515,1.4562,1.4626,1.4631,1.4657,1.467,1.4668,1.4691,1.4692,1.4694,1.4702,1.4704,1.4676,1.4677,1.4677,1.4677,0,1.3989,1.4039,1.4064,1.4143,1.4183,1.4226,1.4287,1.432,1.4351,1.4393,1.4452,1.451,1.4574,1.4592,1.4622,1.4661,1.4663,1.4679,1.4691,1.4692,1.47,1.4704,1.4674,1.4674,1.4675,1.4675,0,0,1.3964,1.4073,1.4081,1.4118,1.4198,1.4238,1.4283,1.4347,1.4374,1.4428,1.4468,1.454,1.4556,1.4594,1.463,1.4654,1.4667,1.4668,1.4671,1.4666,1.4713,1.47,1.4703,1.4685,1.4686,1.4687,1.4707,0,1.398,1.4065,1.4116,1.4179,1.4227,1.4273,1.4313,1.4365,1.4406,1.4451,1.4495,1.4546,1.4562,1.4586,1.4612,1.466,1.4677,1.4659,1.4722,1.4723,1.4705,1.4707,1.4695,1.4711,1.4711,1.4712,1.4712,0,1.4011,1.4066,1.4135,1.421,1.4231,1.4266,1.4328,1.437,1.4431,1.4458,1.4501,1.4537,1.4585,1.4592,1.4659,1.4646,1.4674,1.4701,1.4703,1.4712,1.4718,1.4716,1.4718,1.4721,1.4718,1.4717,1.4717,0,1.3986,1.4077,1.413,1.416,1.4248,1.4272,1.4309,1.437,1.4404,1.4458,1.4481,1.4539,1.4571,1.4614,1.4665,1.4665,1.4727,1.4738,1.4751,1.4749,1.4763,1.4761,1.4769,1.4779,1.4779,1.4779,1.4779,0,1.4,1.404,1.4121,1.4153,1.4199,1.4256,1.4299,1.4341,1.4394,1.4434,1.4478,1.4514,1.4578,1.4623,1.4662,1.4712,1.4725,1.4749,1.4759,1.4745,1.4742,1.4765,1.4766,1.478,1.478,1.478,1.478,0,1.3981,1.4036,1.4097,1.4176,1.4196,1.4227,1.4294,1.4327,1.4369,1.442,1.4435,1.4501,1.4556,1.461,1.4683,1.4709,1.4758,1.4771,1.4738,1.4744,1.4754,1.4752,1.4778,1.4784,1.4789,1.4789,1.4788,0,1.3986,1.4018,1.41,1.4131,1.4168,1.4217,1.4253,1.4309,1.4345,1.4415,1.4439,1.4497,1.4547,1.4631,1.4685,1.4741,1.4757,1.4762,1.4765,1.4751,1.4757,1.4755,1.4758,1.476,1.476,1.476,1.4759,0,1.3989,1.4015,1.4066,1.4126,1.4168,1.4218,1.4269,1.4292,1.4357,1.4395,1.4452,1.449,1.4565,1.4621,1.4683,1.4721,1.4751,1.4757,1.4764,1.4751,1.473,1.4742,1.4734,1.4757,1.4757,1.4757,1.4757,1.4758,1.3983,1.4014,1.4077,1.4132,1.4176,1.4223,1.4258,1.4305,1.4353,1.4419,1.4449,1.4506,1.4565,1.4651,1.4688,1.4733,1.4741,1.4749,1.4752,1.4753,1.475,1.4722,1.4744,1.4744,1.4745,1.4745,1.4745,0,1.3989,1.4032,1.4082,1.4153,1.4196,1.422,1.4278,1.4312,1.4362,1.4415,1.4463,1.4527,1.4582,1.464,1.4698,1.4723,1.4738,1.4736,1.4735,1.4744,1.474,1.4729,1.4723,1.4723,1.4723,1.4723,1.4723,1.4723,1.3998,1.4051,1.4084,1.416,1.4202,1.4259,1.429,1.4333,1.4375,1.4446,1.4492,1.453,1.4584,1.4647,1.4698,1.4714,1.4733,1.4728,1.4747,1.4742,1.4744,1.4745,1.4736,1.4731,1.4731,1.4747,1.4747,1.4747]},{"header":{"parameterUnit":"m.s-1","parameterCategory":1,"la1":30.2991,"la2":30.254,"lo1":-89.0895,"lo2":-89.0444,"dy":0.0017,"dx":0.0017,"nx":28,"ny":28,"refTime":"2023-08-26T03:00:00:Z","depth":0,"parameterNumber":3,"parameterNumberName":"V-component_of_WINDS"},"data":[0,0,0,0,0,0,0,0,0,0,0,0,0,0,0,0,0,0,0,0,0,0,0,0,0,0,0,0,0,0,0,0,0,0,0,0,0,0,0,0,0,0,0,0,0,0,0,0,0,0,0,0,0,0,0,0,0,0,3.7836,3.7836,0,3.7828,3.7828,3.7828,3.7775,3.7774,3.7773,3.7771,3.7763,3.7764,3.7765,0,0,0,0,0,0,0,0,0,0,0,0,0,3.7807,3.7807,3.7836,3.7836,3.7836,3.7828,3.7828,3.7828,3.7775,3.7774,3.7772,3.7771,3.7763,3.7764,3.7765,0,0,0,0,0,0,0,0,0,0,0,0,0,3.7811,3.7808,3.7836,3.7809,3.7806,3.7828,3.7828,3.7827,3.7776,3.7774,3.7772,3.777,3.7762,3.7764,3.7765,3.7812,0,0,3.777,3.777,0,0,0,0,0,0,0,0,3.7811,3.7812,3.7813,3.7811,3.7808,3.78,3.7814,3.7822,3.7776,3.7787,3.7771,3.7769,3.7777,3.7777,3.778,3.7812,3.7812,3.777,3.7771,3.7771,3.7772,0,0,0,0,0,0,0,3.7811,3.7812,3.7833,3.7813,3.781,3.7797,3.7795,3.7816,3.7793,3.7786,3.7782,3.7782,3.7775,3.7779,3.7779,3.7811,3.777,3.7771,3.7772,3.7772,3.7882,3.7884,0,0,0,0,0,0,3.7814,3.7812,3.7833,3.7832,3.7805,3.7799,3.7797,3.7805,3.7793,3.7789,3.7784,3.778,3.7777,3.7778,3.7779,3.7833,3.7771,3.7773,3.7773,3.788,3.7882,3.7885,0,0,0,0,0,0,3.7814,3.7816,3.7833,3.7821,3.7822,3.7802,3.781,3.7806,3.7809,3.7791,3.7786,3.7791,3.7775,3.7777,3.7804,3.7832,3.7773,3.7774,3.7878,3.7881,3.7884,3.7942,0,0,0,0,0,0,3.7813,3.7817,3.7834,3.7822,3.7823,3.7859,3.7812,3.7807,3.7811,3.7806,3.7797,3.7793,3.7774,3.7802,3.7806,3.7833,3.7776,3.7875,3.7879,3.7883,3.7938,3.7947,3.7955,0,0,0,0,0,3.7812,3.7851,3.7835,3.7838,3.7845,3.7861,3.7861,3.7839,3.7814,3.7831,3.782,3.7793,3.7829,3.7806,3.7809,3.7837,3.7873,3.7878,3.7882,3.7934,3.7945,3.7955,0,0,0,0,0,0,3.7866,3.7849,3.7831,3.7867,3.7866,3.7852,3.7873,3.7851,3.7857,3.7852,3.7823,3.7822,3.7854,3.7848,3.7823,3.7882,3.7846,3.7852,3.7884,3.7895,3.7903,3.7904,3.7777,0,0,0,0,0,3.7883,3.7897,3.7881,3.7914,3.7914,3.7894,3.79,3.7883,3.788,3.788,3.787,3.7869,3.7879,3.7887,3.7896,3.7937,3.7934,3.7958,3.7966,3.7974,3.7978,3.8,3.801,3.79,3.79,3.79,0,0,3.7916,3.7908,3.7919,3.7925,3.7922,3.7937,3.7894,3.7912,3.7924,3.7882,3.7908,3.7901,3.7898,3.7932,3.7947,3.7929,3.8009,3.7979,3.7985,3.7986,3.8006,3.8016,3.8026,3.7903,3.7902,3.7902,0,0,3.7985,3.7981,3.8008,3.8006,3.8002,3.7988,3.7995,3.7985,3.7978,3.8004,3.7973,3.7986,3.8005,3.8004,3.8006,3.8076,3.8052,3.808,3.8124,3.8145,3.8154,3.8162,3.8186,3.8196,3.8085,3.8085,3.8085,0,3.8027,3.8049,3.8025,3.8045,3.8049,3.8013,3.804,3.8039,3.8039,3.8042,3.8021,3.8045,3.804,3.8074,3.8091,3.8094,3.8101,3.808,3.8155,3.8162,3.8169,3.8192,3.8201,3.8088,3.8088,3.8087,3.8087,0,3.8101,3.8117,3.814,3.814,3.8146,3.817,3.815,3.8159,3.8141,3.813,3.8156,3.815,3.8156,3.8163,3.8146,3.8195,3.8184,3.816,3.8123,3.8183,3.8204,3.8213,3.8093,3.8092,3.8091,3.809,0,0,3.8203,3.819,3.8199,3.8199,3.8192,3.8204,3.8227,3.8234,3.8242,3.8243,3.8261,3.8279,3.8256,3.8259,3.8241,3.826,3.8316,3.8233,3.8233,3.8249,3.8369,3.8387,3.8398,3.83,3.8302,3.8303,3.8369,0,3.8269,3.8307,3.8286,3.8326,3.8341,3.8307,3.8327,3.8325,3.8315,3.8326,3.8315,3.8328,3.8298,3.8299,3.8316,3.8305,3.8339,3.83,3.8317,3.8317,3.8318,3.8409,3.8428,3.8491,3.8378,3.8379,3.838,0,3.8351,3.8355,3.8398,3.8389,3.8394,3.8412,3.8417,3.8428,3.8425,3.8417,3.842,3.8399,3.842,3.8385,3.8414,3.8388,3.8394,3.8389,3.8391,3.8392,3.8352,3.8412,3.8511,3.852,3.8393,3.8392,3.8391,0,3.8421,3.8438,3.8465,3.8466,3.8456,3.847,3.8466,3.8462,3.8468,3.8472,3.8476,3.8483,3.8486,3.8492,3.8473,3.8449,3.8506,3.8468,3.8499,3.85,3.8512,3.8511,3.8613,3.8517,3.8516,3.8516,3.8516,0,3.8496,3.8523,3.8496,3.8513,3.8543,3.8519,3.8548,3.8541,3.8538,3.8553,3.8525,3.8539,3.8513,3.8526,3.8511,3.8538,3.854,3.8533,3.8529,3.8536,3.8537,3.8539,3.8534,3.8519,3.8518,3.8518,3.8517,0,3.8579,3.8562,3.859,3.8579,3.8576,3.8599,3.8589,3.8604,3.8593,3.8612,3.8616,3.8598,3.8611,3.8593,3.8604,3.8594,3.863,3.862,3.8631,3.8628,3.866,3.8657,3.8766,3.8779,3.8675,3.8676,3.8677,0,3.8628,3.8648,3.8639,3.8647,3.8646,3.8659,3.8665,3.8642,3.8649,3.8648,3.8664,3.8675,3.8682,3.8704,3.8692,3.8701,3.869,3.8727,3.8691,3.8697,3.869,3.8689,3.8691,3.8735,3.8736,3.8737,3.8738,0,3.8717,3.8708,3.8717,3.8724,3.8732,3.8736,3.8738,3.8747,3.8723,3.8732,3.8745,3.8751,3.8763,3.8774,3.8779,3.8775,3.8753,3.875,3.8757,3.8764,3.877,3.8767,3.8651,3.8747,3.8746,3.8746,3.8745,3.8745,3.8784,3.88,3.8797,3.8809,3.8808,3.8811,3.8825,3.8815,3.8826,3.8833,3.8819,3.8836,3.8834,3.8839,3.8838,3.8851,3.8834,3.8845,3.8848,3.8851,3.8856,3.8768,3.8852,3.8851,3.8851,3.8851,3.8851,0,3.8871,3.8868,3.8879,3.8883,3.8892,3.887,3.8872,3.8881,3.8896,3.8896,3.8903,3.8919,3.8929,3.8919,3.8927,3.894,3.893,3.8943,3.8941,3.8941,3.887,3.8862,3.8951,3.8951,3.8951,3.8951,3.8951,3.8951,3.8918,3.8944,3.8935,3.8961,3.8957,3.8973,3.8976,3.8979,3.8978,3.8997,3.9005,3.8999,3.8994,3.9002,3.9011,3.9008,3.9012,3.9029,3.9022,3.8956,3.8946,3.8937,3.8929,3.903,3.9031,3.9092,3.9093,3.9093]}]]